DAL143 EHAM-KSEA

Flight info

Callsign DAL143
Flight time N/A
Altitude 24000
Route BERGI L602 SUPUR P1 ROKAN/N0480F340 DCT GIGUL DCT UPNAL DCT DOKEN DCT RIMOL DCT STN DCT BALIX/M084F340 DCT 62N020W/M084F360 65N030W 67N040W 69N050W 69N060W DCT BOPUT/N0481F360 DCT 69N070W/N0485F380 68N080W 66N090W 63N100W 60N105W/N0491F400 57N110W DCT ROMRA DCT YDC DCT JAKSN GLASR3
Aircraft MD11/H-SDE1E2E3FGHIJ2J3J4J5M1RWXY/LB1D1

Departure

Time N/A
Airport Amsterdam Airport Schiphol (EHAM)

Arrival

Time 2026-05-04 02:05
Airport Seattle–Tacoma International Airport (KSEA)
Time Latitude Longitude Altitude Speed Heading
2026-05-03 23:58 59.25895 -106.34926 33933 ft 502 kts 228°
2026-05-03 23:59 59.20707 -106.44064 33946 ft 502 kts 228°
2026-05-03 23:59 59.15512 -106.53178 33952 ft 502 kts 228°
2026-05-04 00:00 59.10306 -106.62271 33949 ft 502 kts 228°
2026-05-04 00:00 59.05100 -106.71322 33953 ft 502 kts 228°
2026-05-04 00:01 58.99892 -106.80339 33954 ft 502 kts 228°
2026-05-04 00:01 58.94673 -106.89338 33955 ft 502 kts 229°
2026-05-04 00:02 58.89489 -106.98238 33956 ft 502 kts 229°
2026-05-04 00:02 58.84263 -107.07172 33955 ft 501 kts 229°
2026-05-04 00:03 58.79032 -107.16078 33958 ft 501 kts 229°
2026-05-04 00:03 58.73766 -107.24918 33958 ft 502 kts 228°
2026-05-04 00:04 58.68500 -107.33722 33960 ft 501 kts 228°
2026-05-04 00:04 58.64139 -107.41038 33959 ft 500 kts 228°
2026-05-04 00:05 58.58895 -107.49831 33958 ft 500 kts 229°
2026-05-04 00:05 58.52804 -107.60003 33970 ft 500 kts 229°
2026-05-04 00:06 58.48402 -107.67319 33975 ft 500 kts 228°
2026-05-04 00:06 58.43147 -107.76021 33966 ft 499 kts 228°
2026-05-04 00:07 58.37929 -107.84625 33971 ft 498 kts 228°
2026-05-04 00:07 58.32676 -107.93252 33975 ft 498 kts 228°
2026-05-04 00:08 58.27431 -108.01831 33980 ft 497 kts 228°
2026-05-04 00:08 58.22190 -108.10369 33981 ft 496 kts 228°
2026-05-04 00:09 58.16949 -108.18873 33985 ft 495 kts 228°
2026-05-04 00:09 58.11687 -108.27313 33986 ft 495 kts 227°
2026-05-04 00:10 58.06417 -108.35709 33989 ft 494 kts 227°
2026-05-04 00:10 58.01204 -108.44046 33988 ft 494 kts 227°
2026-05-04 00:11 57.95962 -108.52425 33985 ft 493 kts 227°
2026-05-04 00:11 57.90726 -108.60766 33989 ft 493 kts 227°
2026-05-04 00:12 57.85488 -108.69073 33986 ft 493 kts 227°
2026-05-04 00:12 57.80237 -108.77367 33984 ft 493 kts 227°
2026-05-04 00:13 57.74986 -108.85627 33986 ft 493 kts 227°
2026-05-04 00:13 57.69724 -108.93872 33983 ft 493 kts 227°
2026-05-04 00:14 57.64460 -109.02088 33984 ft 493 kts 227°
2026-05-04 00:14 57.59226 -109.10226 33982 ft 493 kts 227°
2026-05-04 00:15 57.53953 -109.18392 33974 ft 493 kts 227°
2026-05-04 00:15 57.48659 -109.26521 33979 ft 494 kts 226°
2026-05-04 00:16 57.43344 -109.34631 33976 ft 494 kts 226°
2026-05-04 00:16 57.38033 -109.42766 33974 ft 494 kts 226°
2026-05-04 00:17 57.32723 -109.50898 33978 ft 495 kts 226°
2026-05-04 00:17 57.27442 -109.58958 33978 ft 495 kts 226°
2026-05-04 00:18 57.22115 -109.67056 33980 ft 496 kts 226°
2026-05-04 00:18 57.16783 -109.75126 33978 ft 496 kts 226°
2026-05-04 00:19 57.11445 -109.83175 33982 ft 496 kts 226°
2026-05-04 00:19 57.06100 -109.91205 33980 ft 496 kts 226°
2026-05-04 00:20 57.00761 -109.99239 33985 ft 495 kts 228°
2026-05-04 00:20 56.98196 -110.03475 34136 ft 496 kts 231°
2026-05-04 00:20 56.95717 -110.07877 34504 ft 495 kts 232°
2026-05-04 00:21 56.93317 -110.12281 34890 ft 494 kts 232°
2026-05-04 00:21 56.90900 -110.16756 35258 ft 494 kts 232°
2026-05-04 00:21 56.88480 -110.21226 35635 ft 493 kts 232°
2026-05-04 00:21 56.86058 -110.25670 35998 ft 493 kts 232°
2026-05-04 00:22 56.83629 -110.30095 36353 ft 492 kts 232°
2026-05-04 00:22 56.81197 -110.34504 36721 ft 492 kts 232°
2026-05-04 00:22 56.78766 -110.38895 37070 ft 491 kts 231°
2026-05-04 00:22 56.76335 -110.43275 37409 ft 491 kts 231°
2026-05-04 00:23 56.73906 -110.47643 37755 ft 490 kts 231°
2026-05-04 00:23 56.71480 -110.51997 38088 ft 490 kts 231°
2026-05-04 00:23 56.69053 -110.56348 38407 ft 489 kts 231°
2026-05-04 00:23 56.66623 -110.60695 38717 ft 489 kts 231°
2026-05-04 00:24 56.64197 -110.65028 38938 ft 489 kts 231°
2026-05-04 00:24 56.61769 -110.69356 39165 ft 489 kts 231°
2026-05-04 00:24 56.59344 -110.73673 39395 ft 489 kts 231°
2026-05-04 00:24 56.56915 -110.77989 39612 ft 488 kts 231°
2026-05-04 00:25 56.54484 -110.82299 39818 ft 488 kts 231°
2026-05-04 00:25 56.52053 -110.86604 39951 ft 489 kts 231°
2026-05-04 00:25 56.47179 -110.95212 39988 ft 489 kts 231°
2026-05-04 00:26 56.42338 -111.03725 39992 ft 489 kts 231°
2026-05-04 00:26 56.37434 -111.12229 39996 ft 489 kts 231°
2026-05-04 00:27 56.32532 -111.20716 40002 ft 489 kts 231°
2026-05-04 00:27 56.27637 -111.29216 39998 ft 488 kts 231°
2026-05-04 00:28 56.22745 -111.37702 40003 ft 489 kts 231°
2026-05-04 00:28 56.17846 -111.46168 40001 ft 489 kts 231°
2026-05-04 00:29 56.12935 -111.54622 39997 ft 489 kts 231°
2026-05-04 00:29 56.08025 -111.63041 39997 ft 489 kts 231°
2026-05-04 00:30 56.03108 -111.71441 39993 ft 489 kts 231°
2026-05-04 00:30 55.98178 -111.79831 39993 ft 489 kts 231°
2026-05-04 00:31 55.93242 -111.88202 39996 ft 489 kts 231°
2026-05-04 00:31 55.88300 -111.96550 39990 ft 489 kts 231°
2026-05-04 00:32 55.83385 -112.04824 39990 ft 490 kts 231°
2026-05-04 00:32 55.78407 -112.13111 39987 ft 490 kts 230°
2026-05-04 00:33 55.70924 -112.25498 39989 ft 490 kts 230°
2026-05-04 00:34 55.65950 -112.33756 39989 ft 490 kts 231°
2026-05-04 00:34 55.60970 -112.42007 39990 ft 490 kts 231°
2026-05-04 00:35 55.55986 -112.50234 39991 ft 490 kts 231°
2026-05-04 00:35 55.51027 -112.58388 39991 ft 490 kts 231°
2026-05-04 00:36 55.46037 -112.66562 39992 ft 490 kts 231°
2026-05-04 00:36 55.41039 -112.74720 39995 ft 490 kts 231°
2026-05-04 00:37 55.36038 -112.82854 39982 ft 490 kts 231°
2026-05-04 00:37 55.31032 -112.90967 39980 ft 490 kts 231°
2026-05-04 00:38 55.26012 -112.99071 39992 ft 490 kts 231°
2026-05-04 00:38 55.20991 -113.07148 39993 ft 490 kts 231°
2026-05-04 00:39 55.15972 -113.15110 39997 ft 490 kts 231°
2026-05-04 00:39 55.10917 -113.23123 39996 ft 490 kts 231°
2026-05-04 00:40 55.05870 -113.31145 39998 ft 490 kts 231°
2026-05-04 00:40 55.00828 -113.39148 40002 ft 490 kts 231°
2026-05-04 00:41 54.95775 -113.47139 40002 ft 490 kts 231°
2026-05-04 00:41 54.90720 -113.55103 39997 ft 490 kts 231°
2026-05-04 00:42 54.85657 -113.63052 39998 ft 490 kts 231°
2026-05-04 00:42 54.80592 -113.70972 39999 ft 490 kts 231°
2026-05-04 00:43 54.75557 -113.78821 40000 ft 490 kts 231°
2026-05-04 00:43 54.70493 -113.86686 40006 ft 489 kts 231°
2026-05-04 00:44 54.65425 -113.94532 40006 ft 489 kts 231°
2026-05-04 00:44 54.60355 -114.02352 40007 ft 488 kts 231°
2026-05-04 00:45 54.55261 -114.10121 40011 ft 489 kts 231°
2026-05-04 00:45 54.50163 -114.17861 40013 ft 488 kts 231°
2026-05-04 00:46 54.45076 -114.25610 40015 ft 488 kts 231°
2026-05-04 00:46 54.39995 -114.33344 40010 ft 488 kts 231°
2026-05-04 00:47 54.34913 -114.41055 40014 ft 488 kts 231°
2026-05-04 00:47 54.29823 -114.48750 40017 ft 488 kts 231°
2026-05-04 00:48 54.24764 -114.56370 40009 ft 488 kts 231°
2026-05-04 00:48 54.19669 -114.64018 40014 ft 487 kts 231°
2026-05-04 00:49 54.14571 -114.71646 40005 ft 487 kts 231°
2026-05-04 00:49 54.09466 -114.79257 40010 ft 487 kts 231°
2026-05-04 00:50 54.04357 -114.86849 40008 ft 487 kts 231°
2026-05-04 00:50 53.99255 -114.94403 40010 ft 486 kts 231°
2026-05-04 00:51 53.94138 -115.01921 40010 ft 486 kts 230°
2026-05-04 00:51 53.89008 -115.09393 40007 ft 486 kts 230°
2026-05-04 00:52 53.83890 -115.16872 40011 ft 485 kts 231°
2026-05-04 00:52 53.78783 -115.24338 40007 ft 485 kts 231°
2026-05-04 00:53 53.74542 -115.30521 40005 ft 484 kts 230°
2026-05-04 00:53 53.68608 -115.39144 40004 ft 484 kts 230°
2026-05-04 00:54 53.63503 -115.46534 40011 ft 483 kts 230°
2026-05-04 00:54 53.59259 -115.52660 40010 ft 483 kts 230°
2026-05-04 00:55 53.54159 -115.59998 40010 ft 482 kts 230°
2026-05-04 00:55 53.49056 -115.67317 40008 ft 482 kts 230°
2026-05-04 00:56 53.43946 -115.74622 40005 ft 482 kts 230°
2026-05-04 00:56 53.38826 -115.81916 40006 ft 482 kts 230°
2026-05-04 00:57 53.33705 -115.89187 40011 ft 482 kts 230°
2026-05-04 00:57 53.28593 -115.96358 40011 ft 482 kts 229°
2026-05-04 00:58 53.23452 -116.03566 40007 ft 482 kts 229°
2026-05-04 00:58 53.18316 -116.10785 40016 ft 483 kts 229°
2026-05-04 00:59 53.13179 -116.17996 40013 ft 483 kts 229°
2026-05-04 00:59 53.08038 -116.25191 40017 ft 483 kts 229°
2026-05-04 01:00 53.02888 -116.32372 40015 ft 483 kts 229°
2026-05-04 01:00 52.97727 -116.39544 40021 ft 484 kts 229°
2026-05-04 01:01 52.92591 -116.46658 40023 ft 484 kts 229°
2026-05-04 01:01 52.87417 -116.53803 40035 ft 484 kts 229°
2026-05-04 01:02 52.82235 -116.60936 40034 ft 484 kts 229°
2026-05-04 01:02 52.77049 -116.68050 40033 ft 485 kts 229°
2026-05-04 01:03 52.71854 -116.75155 40034 ft 485 kts 229°
2026-05-04 01:03 52.66641 -116.82234 40034 ft 486 kts 228°
2026-05-04 01:04 52.61417 -116.89300 40043 ft 486 kts 229°
2026-05-04 01:04 52.56203 -116.96377 40041 ft 486 kts 228°
2026-05-04 01:05 52.50985 -117.03456 40038 ft 486 kts 228°
2026-05-04 01:05 52.45769 -117.10512 40040 ft 486 kts 228°
2026-05-04 01:06 52.40543 -117.17562 40033 ft 487 kts 228°
2026-05-04 01:06 52.35295 -117.24616 40029 ft 488 kts 228°
2026-05-04 01:07 52.30046 -117.31645 40023 ft 489 kts 228°
2026-05-04 01:07 52.24779 -117.38682 40008 ft 489 kts 228°
2026-05-04 01:08 52.19531 -117.45667 39990 ft 490 kts 228°
2026-05-04 01:08 52.14254 -117.52669 39994 ft 490 kts 227°
2026-05-04 01:09 52.08961 -117.59672 39991 ft 491 kts 227°
2026-05-04 01:09 52.03576 -117.66536 40003 ft 497 kts 224°
2026-05-04 01:10 51.97852 -117.72853 40004 ft 497 kts 221°
2026-05-04 01:10 51.92069 -117.79016 39958 ft 497 kts 221°
2026-05-04 01:11 51.86298 -117.85214 39958 ft 498 kts 221°
2026-05-04 01:11 51.80556 -117.91415 39953 ft 501 kts 221°
2026-05-04 01:12 51.74763 -117.97661 39950 ft 500 kts 221°
2026-05-04 01:12 51.68974 -118.03880 39895 ft 499 kts 221°
2026-05-04 01:13 51.63186 -118.10077 39948 ft 500 kts 221°
2026-05-04 01:13 51.57390 -118.16260 39940 ft 501 kts 221°
2026-05-04 01:14 51.51575 -118.22450 39899 ft 501 kts 221°
2026-05-04 01:14 51.45805 -118.28567 39926 ft 502 kts 220°
2026-05-04 01:15 51.39983 -118.34726 39932 ft 502 kts 220°
2026-05-04 01:15 51.34138 -118.40872 39932 ft 502 kts 220°
2026-05-04 01:16 51.28287 -118.46970 39930 ft 502 kts 220°
2026-05-04 01:16 51.22432 -118.53086 39922 ft 502 kts 220°
2026-05-04 01:17 51.16630 -118.59149 39923 ft 502 kts 220°
2026-05-04 01:17 51.10769 -118.65260 39918 ft 504 kts 220°
2026-05-04 01:18 51.04889 -118.71370 39926 ft 504 kts 220°
2026-05-04 01:18 50.99002 -118.77467 39920 ft 505 kts 220°
2026-05-04 01:19 50.93115 -118.83543 39917 ft 505 kts 219°
2026-05-04 01:19 50.87245 -118.89589 39912 ft 507 kts 219°
2026-05-04 01:20 50.81326 -118.95661 39905 ft 506 kts 219°
2026-05-04 01:20 50.75409 -119.01714 39910 ft 506 kts 219°
2026-05-04 01:21 50.69484 -119.07757 39908 ft 506 kts 219°
2026-05-04 01:21 50.63592 -119.13728 39908 ft 507 kts 219°
2026-05-04 01:22 50.57634 -119.19728 39912 ft 507 kts 219°
2026-05-04 01:22 50.51692 -119.25723 39916 ft 507 kts 218°
2026-05-04 01:23 50.45759 -119.31709 39906 ft 507 kts 219°
2026-05-04 01:23 50.39817 -119.37689 39894 ft 507 kts 218°
2026-05-04 01:24 50.33910 -119.43615 39898 ft 507 kts 218°
2026-05-04 01:24 50.27962 -119.49563 39890 ft 507 kts 218°
2026-05-04 01:25 50.22005 -119.55501 39894 ft 508 kts 218°
2026-05-04 01:25 50.16035 -119.61435 39895 ft 508 kts 218°
2026-05-04 01:26 50.10069 -119.67347 39894 ft 508 kts 218°
2026-05-04 01:26 50.04129 -119.73215 39897 ft 508 kts 218°
2026-05-04 01:27 49.98155 -119.79101 39898 ft 508 kts 218°
2026-05-04 01:27 49.92176 -119.84954 39903 ft 508 kts 217°
2026-05-04 01:28 49.86203 -119.90798 39919 ft 508 kts 217°
2026-05-04 01:28 49.80230 -119.96657 39917 ft 508 kts 217°
2026-05-04 01:29 49.74263 -120.02504 39916 ft 508 kts 217°
2026-05-04 01:29 49.68281 -120.08348 39928 ft 509 kts 217°
2026-05-04 01:30 49.62313 -120.14160 39920 ft 509 kts 217°
2026-05-04 01:30 49.56312 -120.19985 39921 ft 510 kts 217°
2026-05-04 01:31 49.50302 -120.25802 39930 ft 509 kts 217°
2026-05-04 01:31 49.44298 -120.31597 39928 ft 509 kts 217°
2026-05-04 01:32 49.38224 -120.37250 39924 ft 511 kts 211°
2026-05-04 01:32 49.31627 -120.41425 39932 ft 514 kts 202°
2026-05-04 01:33 49.24887 -120.44919 39934 ft 513 kts 201°
2026-05-04 01:33 49.18132 -120.48472 39938 ft 512 kts 202°
2026-05-04 01:34 49.11406 -120.52123 39934 ft 513 kts 202°
2026-05-04 01:34 49.04733 -120.55774 39938 ft 513 kts 202°
2026-05-04 01:35 48.98011 -120.59439 39933 ft 513 kts 202°
2026-05-04 01:35 48.91286 -120.63090 39928 ft 513 kts 202°
2026-05-04 01:36 48.84552 -120.66733 39917 ft 513 kts 202°
2026-05-04 01:36 48.77819 -120.70365 39919 ft 513 kts 202°
2026-05-04 01:37 48.71089 -120.73985 39907 ft 513 kts 202°
2026-05-04 01:37 48.67704 -120.75810 39427 ft 519 kts 201°
2026-05-04 01:37 48.64293 -120.77645 38808 ft 522 kts 202°
2026-05-04 01:37 48.60865 -120.79485 38162 ft 523 kts 201°
2026-05-04 01:38 48.57437 -120.81317 37537 ft 522 kts 201°
2026-05-04 01:38 48.54011 -120.83146 36945 ft 521 kts 201°
2026-05-04 01:38 48.50624 -120.84956 36394 ft 519 kts 201°
2026-05-04 01:38 48.47224 -120.86777 35847 ft 518 kts 201°
2026-05-04 01:39 48.43830 -120.88598 35246 ft 517 kts 201°
2026-05-04 01:39 48.40439 -120.90417 34648 ft 517 kts 201°
2026-05-04 01:39 48.37042 -120.92238 34047 ft 518 kts 201°
2026-05-04 01:39 48.33652 -120.94054 33379 ft 516 kts 201°
2026-05-04 01:40 48.30274 -120.95859 32779 ft 515 kts 201°
2026-05-04 01:40 48.26909 -120.97655 32166 ft 513 kts 201°
2026-05-04 01:40 48.23597 -120.99421 31563 ft 512 kts 201°
2026-05-04 01:40 48.20241 -121.01208 30935 ft 511 kts 201°
2026-05-04 01:41 48.16898 -121.02986 30296 ft 510 kts 201°
2026-05-04 01:41 48.13549 -121.04766 29569 ft 509 kts 201°
2026-05-04 01:41 48.10234 -121.06521 28864 ft 499 kts 201°
2026-05-04 01:41 48.06998 -121.08228 28207 ft 487 kts 201°
2026-05-04 01:42 48.03816 -121.09901 27587 ft 486 kts 201°
2026-05-04 01:42 48.00610 -121.11588 26959 ft 490 kts 201°
2026-05-04 01:42 47.97396 -121.13280 26313 ft 486 kts 201°
2026-05-04 01:42 47.94284 -121.15081 25612 ft 473 kts 207°
2026-05-04 01:43 47.91470 -121.17505 24629 ft 463 kts 219°
2026-05-04 01:43 47.89167 -121.20773 23641 ft 453 kts 234°
2026-05-04 01:43 47.87998 -121.23317 22904 ft 447 kts 244°
2026-05-04 01:43 47.86813 -121.27505 22005 ft 432 kts 258°
2026-05-04 01:44 47.86289 -121.31873 21543 ft 427 kts 270°
2026-05-04 01:44 47.86309 -121.36286 21161 ft 425 kts 278°
2026-05-04 01:44 47.86612 -121.40654 20789 ft 424 kts 281°
2026-05-04 01:44 47.86993 -121.44992 20414 ft 422 kts 281°
2026-05-04 01:45 47.87479 -121.50712 19854 ft 419 kts 280°
2026-05-04 01:45 47.87705 -121.53624 19504 ft 417 kts 280°
2026-05-04 01:45 47.88280 -121.62152 18432 ft 411 kts 277°
2026-05-04 01:46 47.88286 -121.66386 17655 ft 409 kts 267°
2026-05-04 01:46 47.87659 -121.70434 16775 ft 405 kts 251°
2026-05-04 01:46 47.86247 -121.74045 16129 ft 404 kts 233°
2026-05-04 01:46 47.84326 -121.77077 15763 ft 402 kts 226°
2026-05-04 01:47 47.82252 -121.79851 15357 ft 400 kts 224°
2026-05-04 01:47 47.80150 -121.82543 14854 ft 397 kts 223°
2026-05-04 01:47 47.78066 -121.85217 14305 ft 394 kts 224°
2026-05-04 01:47 47.76017 -121.87880 13900 ft 384 kts 224°
2026-05-04 01:48 47.74083 -121.90418 13689 ft 360 kts 224°
2026-05-04 01:48 47.72259 -121.92822 13463 ft 341 kts 224°
2026-05-04 01:48 47.71102 -121.94351 13305 ft 330 kts 224°
2026-05-04 01:48 47.70547 -121.95086 13242 ft 321 kts 225°
2026-05-04 01:49 47.68964 -121.97174 13054 ft 292 kts 225°
2026-05-04 01:49 47.67461 -121.99159 12866 ft 291 kts 225°
2026-05-04 01:49 47.65916 -122.01223 12690 ft 305 kts 225°
2026-05-04 01:49 47.64327 -122.03356 12490 ft 309 kts 225°
2026-05-04 01:50 47.62753 -122.05471 12373 ft 309 kts 225°
2026-05-04 01:50 47.61160 -122.07609 12266 ft 309 kts 225°
2026-05-04 01:50 47.59568 -122.09744 12085 ft 308 kts 225°
2026-05-04 01:50 47.57979 -122.11863 11990 ft 306 kts 224°
2026-05-04 01:51 47.56233 -122.13681 11900 ft 309 kts 210°
2026-05-04 01:51 47.54187 -122.14575 11267 ft 307 kts 187°
2026-05-04 01:51 47.52056 -122.14620 10922 ft 304 kts 180°
2026-05-04 01:51 47.49953 -122.14463 10411 ft 302 kts 179°
2026-05-04 01:52 47.47868 -122.14274 9875 ft 293 kts 179°
2026-05-04 01:52 47.45899 -122.14100 9294 ft 274 kts 179°
2026-05-04 01:52 47.44033 -122.13944 8707 ft 263 kts 180°
2026-05-04 01:52 47.42219 -122.13805 8154 ft 265 kts 180°
2026-05-04 01:53 47.40306 -122.13675 7754 ft 285 kts 180°
2026-05-04 01:53 47.38300 -122.13553 7391 ft 291 kts 180°
2026-05-04 01:53 47.36303 -122.13436 7034 ft 291 kts 180°
2026-05-04 01:53 47.34256 -122.13315 6677 ft 290 kts 180°
2026-05-04 01:54 47.32269 -122.13199 6348 ft 287 kts 180°
2026-05-04 01:54 47.30316 -122.13080 5972 ft 277 kts 180°
2026-05-04 01:54 47.28400 -122.12963 5589 ft 274 kts 180°
2026-05-04 01:54 47.26512 -122.12847 5227 ft 264 kts 180°
2026-05-04 01:55 47.24763 -122.12733 4879 ft 241 kts 180°
2026-05-04 01:55 47.23081 -122.12622 4510 ft 240 kts 180°
2026-05-04 01:55 47.21393 -122.12514 4159 ft 240 kts 179°
2026-05-04 01:55 47.19719 -122.12409 4035 ft 240 kts 179°
2026-05-04 01:56 47.18040 -122.12304 4003 ft 241 kts 179°
2026-05-04 01:56 47.16356 -122.12202 4006 ft 241 kts 180°
2026-05-04 01:56 47.14674 -122.12104 3987 ft 241 kts 180°
2026-05-04 01:56 47.13038 -122.12300 4011 ft 240 kts 199°
2026-05-04 01:57 47.11716 -122.13553 3989 ft 222 kts 234°
2026-05-04 01:57 47.11119 -122.15569 4007 ft 215 kts 268°
2026-05-04 01:57 47.11394 -122.17666 3991 ft 209 kts 303°
2026-05-04 01:57 47.12405 -122.19132 4026 ft 206 kts 331°
2026-05-04 01:58 47.13651 -122.20192 3984 ft 208 kts 333°
2026-05-04 01:58 47.14900 -122.21271 4000 ft 209 kts 332°
2026-05-04 01:58 47.16133 -122.22407 3996 ft 208 kts 331°
2026-05-04 01:58 47.17343 -122.23578 3995 ft 208 kts 329°
2026-05-04 01:59 47.18537 -122.24777 3999 ft 208 kts 328°
2026-05-04 01:59 47.19720 -122.26000 3998 ft 208 kts 327°
2026-05-04 01:59 47.20896 -122.27240 3998 ft 208 kts 327°
2026-05-04 01:59 47.22049 -122.28475 3994 ft 207 kts 327°
2026-05-04 02:00 47.23143 -122.29669 3980 ft 189 kts 327°
2026-05-04 02:00 47.24176 -122.30804 3980 ft 185 kts 328°
2026-05-04 02:00 47.25312 -122.31603 3917 ft 182 kts 352°
2026-05-04 02:00 47.26578 -122.31746 3695 ft 184 kts 359°
2026-05-04 02:01 47.27858 -122.31855 3468 ft 184 kts 359°
2026-05-04 02:01 47.29134 -122.31930 3254 ft 183 kts
2026-05-04 02:01 47.30397 -122.31925 3012 ft 176 kts
2026-05-04 02:01 47.31550 -122.31920 2761 ft 160 kts
2026-05-04 02:02 47.32654 -122.31913 2559 ft 158 kts
2026-05-04 02:02 47.33751 -122.31906 2389 ft 156 kts
2026-05-04 02:02 47.34838 -122.31897 2179 ft 152 kts
2026-05-04 02:02 47.35834 -122.31893 1955 ft 137 kts
2026-05-04 02:03 47.36776 -122.31888 1773 ft 135 kts
2026-05-04 02:03 47.37715 -122.31880 1624 ft 134 kts
2026-05-04 02:03 47.38656 -122.31871 1437 ft 135 kts
2026-05-04 02:03 47.39600 -122.31863 1287 ft 135 kts
2026-05-04 02:04 47.40542 -122.31850 1099 ft 137 kts
2026-05-04 02:04 47.41487 -122.31840 922 ft 134 kts
2026-05-04 02:04 47.42403 -122.31831 770 ft 131 kts
2026-05-04 02:04 47.43320 -122.31804 581 ft 131 kts
2026-05-04 02:05 47.44222 -122.31809 406 ft 126 kts 359°
2026-05-04 02:05 47.44944 -122.31804 398 ft 82 kts
2026-05-04 02:05 47.45373 -122.31799 406 ft 47 kts
2026-05-04 02:05 47.45633 -122.31795 411 ft 28 kts
2026-05-04 02:06 47.45814 -122.31752 414 ft 25 kts 17°
2026-05-04 02:06 47.45962 -122.31618 416 ft 25 kts 47°
2026-05-04 02:06 47.46012 -122.31392 425 ft 23 kts 90°
2026-05-04 02:06 47.46011 -122.31163 430 ft 22 kts 89°
2026-05-04 02:07 47.46013 -122.30935 433 ft 21 kts 89°
2026-05-04 02:07 47.46015 -122.30754 444 ft 15 kts 89°
2026-05-04 02:07 47.45984 -122.30640 446 ft 11 kts 150°
2026-05-04 02:07 47.45909 -122.30619 446 ft 11 kts 181°
2026-05-04 02:08 47.45824 -122.30619 432 ft 14 kts 180°
2026-05-04 02:08 47.45722 -122.30618 439 ft 15 kts 180°
2026-05-04 02:08 47.45608 -122.30618 432 ft 18 kts 180°
2026-05-04 02:08 47.45473 -122.30618 431 ft 21 kts 179°
2026-05-04 02:09 47.45317 -122.30619 423 ft 24 kts 181°
2026-05-04 02:09 47.45173 -122.30623 416 ft 18 kts 181°
2026-05-04 02:09 47.45040 -122.30625 415 ft 21 kts 180°
2026-05-04 02:09 47.44885 -122.30626 415 ft 23 kts 180°
2026-05-04 02:10 47.44718 -122.30627 408 ft 25 kts 180°
2026-05-04 02:10 47.44535 -122.30630 404 ft 28 kts 180°
2026-05-04 02:10 47.44351 -122.30631 397 ft 26 kts 180°
2026-05-04 02:10 47.44182 -122.30633 391 ft 21 kts 180°
2026-05-04 02:11 47.44042 -122.30635 392 ft 16 kts 180°
2026-05-04 02:11 47.43992 -122.30568 392 ft 10 kts 102°
2026-05-04 02:11 47.43992 -122.30468 392 ft 10 kts 88°
2026-05-04 02:11 47.43997 -122.30370 389 ft 10 kts 82°
2026-05-04 02:12 47.44018 -122.30283 391 ft 9 kts 57°
2026-05-04 02:12 47.44046 -122.30209 397 ft 8 kts 71°
2026-05-04 02:12 47.44047 -122.30131 396 ft 7 kts 103°
2026-05-04 02:12 47.44019 -122.30065 397 ft 8 kts 131°
2026-05-04 02:13 47.43973 -122.29998 394 ft 10 kts 135°
2026-05-04 02:13 47.43921 -122.29950 395 ft 7 kts 179°
2026-05-04 02:13 47.43861 -122.29966 394 ft 10 kts 189°
2026-05-04 02:13 47.43828 -122.29955 392 ft 2 kts 139°
2026-05-04 02:14 47.43825 -122.29941 387 ft 2 kts 112°
2026-05-04 02:14 47.43824 -122.29918 391 ft 2 kts 90°
2026-05-04 02:14 47.43827 -122.29902 392 ft 3 kts 74°
2026-05-04 02:14 47.43835 -122.29868 391 ft 4 kts 72°
2026-05-04 02:15 47.43839 -122.29850 394 ft 0 kts 72°